Tracking 29892 objects as of 21-Nov-2024
HD Live streaming from Space Station
objects crossing your sky now

STARLINK-1503

Track STARLINK-1503 now!
10-day predictions
STARLINK-1503 is classified as:


NORAD ID: 45745
Int'l Code: 2020-038R
Perigee: 553.2 km
Apogee: 555.2 km
Inclination: 53.1 °
Period: 95.6 minutes
Semi major axis: 6925 km
RCS: Unknown
Launch date: June 13, 2020
Source: United States (US)
Launch site: AIR FORCE EASTERN TEST RANGE (AFETR)
Your satellite tracking list
Your tracking list is empty




NASA's NSSDC Master Catalog

Two Line Element Set (TLE):
1 45745U 20038R   24324.95505794  .00018191  00000-0  12358-2 0  9998
2 45745  53.0525 207.7823 0001447  84.2311 275.8842 15.06434859244631
Source of the keplerian elements: AFSPC